| time (UTC) | temp F | wind direction | speed MPH | gust MPH | rain 1hr in | rain 24hr in | rain mn in | humidity % | barometer mb |
| 20260902133710 | 74 | 178 | 3.0 | 9.0 | 0.00 | 0.00 | 0.00 | 45 | 1020.4 |
| 20260902131718 | 72 | 207 | 4.0 | 6.0 | 0.00 | 0.00 | 0.00 | 46 | 1020.2 |
| 20260902130715 | 72 | 165 | 4.0 | 7.0 | 0.00 | 0.00 | 0.00 | 45 | 1020.1 |
| 20260902125706 | 73 | 165 | 3.0 | 6.0 | 0.00 | 0.00 | 0.00 | 45 | 1019.9 |
| 20260902124715 | 73 | 175 | 4.0 | 6.0 | 0.00 | 0.00 | 0.00 | 46 | 1019.8 |
| 20260902123712 | 73 | 159 | 3.0 | 4.0 | 0.00 | 0.00 | 0.00 | 46 | 1019.8 |
| 20260902122705 | 73 | 195 | 2.0 | 4.0 | 0.00 | 0.00 | 0.00 | 46 | 1019.7 |
| 20260902121722 | 73 | 182 | 3.0 | 5.0 | 0.00 | 0.00 | 0.00 | 46 | 1019.7 |
| 20260902120717 | 72 | 183 | 3.0 | 6.0 | 0.00 | 0.00 | 0.00 | 46 | 1019.6 |
| 20260902115710 | 72 | 176 | 3.0 | 5.0 | 0.00 | 0.00 | 0.00 | 46 | 1019.6 |
| 20260902113721 | 73 | 162 | 1.0 | 6.0 | 0.00 | 0.00 | 0.00 | 46 | 1019.4 |
| 20260902111719 | 73 | 180 | 4.0 | 6.0 | 0.00 | 0.00 | 0.00 | 45 | 1019.5 |
| 20260902110708 | 73 | 165 | 3.0 | 5.0 | 0.00 | 0.00 | 0.00 | 45 | 1019.3 |
| 20260902104716 | 73 | 162 | 3.0 | 6.0 | 0.00 | 0.00 | 0.00 | 45 | 1019.5 |
| 20260902103715 | 74 | 171 | 3.0 | 5.0 | 0.00 | 0.00 | 0.00 | 44 | 1019.5 |
| 20260902102713 | 74 | 167 | 1.0 | 4.0 | 0.00 | 0.00 | 0.00 | 43 | 1019.5 |
| 20260902101707 | 74 | 175 | 2.0 | 4.0 | 0.00 | 0.00 | 0.00 | 44 | 1019.4 |
| 20260902100718 | 74 | 150 | 1.0 | 6.0 | 0.00 | 0.00 | 0.00 | 44 | 1019.3 |
| 20260902095713 | 74 | 188 | 2.0 | 7.0 | 0.00 | 0.00 | 0.00 | 44 | 1019.3 |
| 20260902094713 | 74 | 198 | 2.0 | 4.0 | 0.00 | 0.00 | 0.00 | 44 | 1019.4 |
| 20260902093707 | 74 | 182 | 2.0 | 4.0 | 0.00 | 0.00 | 0.00 | 43 | 1019.3 |
| 20260902092706 | 74 | 150 | 2.0 | 4.0 | 0.00 | 0.00 | 0.00 | 43 | 1019.3 |
| 20260902091703 | 74 | 136 | 3.0 | 4.0 | 0.00 | 0.00 | 0.00 | 43 | 1019.3 |
| 20260902085709 | 75 | 139 | 2.0 | 2.0 | 0.00 | 0.00 | 0.00 | 43 | 1019.4 |
| 20260902084706 | 75 | 134 | 1.0 | 3.0 | 0.00 | 0.00 | 0.00 | 42 | 1019.4 |
| 20260902081701 | 76 | 131 | 1.0 | 3.0 | 0.00 | 0.00 | 0.00 | 41 | 1019.7 |
| 20260902080720 | 77 | 144 | 1.0 | 3.0 | 0.00 | 0.00 | 0.00 | 40 | 1019.7 |
| 20260902075719 | 77 | 83 | 2.0 | 3.0 | 0.00 | 0.00 | 0.00 | 40 | 1019.7 |
| 20260902073719 | 77 | 140 | 1.0 | 4.0 | 0.00 | 0.00 | 0.00 | 40 | 1019.7 |
| 20260902072710 | 77 | 161 | 3.0 | 6.0 | 0.00 | 0.00 | 0.00 | 41 | 1019.7 |
| 20260902071704 | 77 | 111 | 3.0 | 7.0 | 0.00 | 0.00 | 0.00 | 41 | 1019.7 |
| 20260902070719 | 77 | 153 | 2.0 | 4.0 | 0.00 | 0.00 | 0.00 | 40 | 1019.8 |
| 20260902064716 | 77 | 132 | 2.0 | 5.0 | 0.00 | 0.00 | 0.00 | 41 | 1019.7 |
| 20260902062705 | 78 | 136 | 1.0 | 2.0 | 0.00 | 0.00 | 0.00 | 38 | 1019.7 |
| 20260902060713 | 79 | 140 | 1.0 | 3.0 | 0.00 | 0.00 | 0.00 | 37 | 1019.6 |
| 20260902055701 | 80 | 163 | 1.0 | 3.0 | 0.00 | 0.00 | 0.00 | 37 | 1019.7 |
| 20260902054718 | 80 | 173 | 0.0 | 3.0 | 0.00 | 0.00 | 0.00 | 37 | 1019.7 |
| 20260902053713 | 80 | 178 | 2.0 | 4.0 | 0.00 | 0.00 | 0.00 | 37 | 1019.6 |
| 20260902051703 | 80 | 207 | 2.0 | 6.0 | 0.00 | 0.00 | 0.00 | 38 | 1019.8 |
| 20260902050712 | 79 | 188 | 3.0 | 7.0 | 0.00 | 0.00 | 0.00 | 38 | 1019.8 |
| 20260902044659 | 79 | 136 | 1.0 | 3.0 | 0.00 | 0.00 | 0.00 | 37 | 1019.8 |
| 20260902043713 | 79 | 121 | 3.0 | 4.0 | 0.00 | 0.00 | 0.00 | 37 | 1019.5 |
| 20260902041702 | 80 | 136 | 2.0 | 4.0 | 0.00 | 0.00 | 0.00 | 35 | 1019.4 |
| 20260902040713 | 80 | 152 | 2.0 | 5.0 | 0.00 | 0.00 | 0.00 | 35 | 1019.4 |
| 20260902035707 | 81 | 138 | 3.0 | 4.0 | 0.00 | 0.00 | 0.00 | 33 | 1019.5 |
| 20260902034658 | 82 | 153 | 1.0 | 2.0 | 0.00 | 0.00 | 0.00 | 32 | 1019.4 |
| 20260902033715 | 83 | 159 | 1.0 | 2.0 | 0.00 | 0.00 | 0.00 | 32 | 1019.2 |
| 20260902032707 | 84 | 161 | 0.0 | 2.0 | 0.00 | 0.00 | 0.00 | 31 | 1019.1 |
| 20260902031659 | 84 | 165 | 1.0 | 2.0 | 0.00 | 0.00 | 0.00 | 31 | 1019.0 |
| 20260902030658 | 85 | 165 | 1.0 | 2.0 | 0.00 | 0.00 | 0.00 | 30 | 1018.7 |
| 20260902025708 | 85 | 165 | 0.0 | 2.0 | 0.00 | 0.00 | 0.00 | 30 | 1018.6 |
| 20260902024702 | 86 | 165 | 2.0 | 2.0 | 0.00 | 0.00 | 0.00 | 29 | 1018.5 |
| 20260902023700 | 86 | 360 | 1.0 | 2.0 | 0.00 | 0.00 | 0.00 | 29 | 1018.3 |
| 20260902022708 | 86 | 111 | 1.0 | 3.0 | 0.00 | 0.00 | 0.00 | 29 | 1018.1 |
| 20260902021705 | 86 | 111 | 0.0 | 2.0 | 0.00 | 0.00 | 0.00 | 28 | 1018.0 |
| 20260902020657 | 87 | 184 | 2.0 | 3.0 | 0.00 | 0.00 | 0.00 | 28 | 1018.0 |
| 20260902015711 | 87 | 183 | 2.0 | 3.0 | 0.00 | 0.00 | 0.00 | 28 | 1017.9 |
| 20260902014659 | 88 | 216 | 2.0 | 2.0 | 0.00 | 0.00 | 0.00 | 27 | 1017.6 |
| 20260902013701 | 88 | 232 | 2.0 | 4.0 | 0.00 | 0.00 | 0.00 | 27 | 1017.5 |
| 20260902011655 | 89 | 223 | 3.0 | 6.0 | 0.00 | 0.00 | 0.00 | 26 | 1017.6 |
| 20260902010710 | 89 | 247 | 3.0 | 8.0 | 0.00 | 0.00 | 0.00 | 26 | 1017.5 |
| 20260902005703 | 90 | 223 | 4.0 | 9.0 | 0.00 | 0.00 | 0.00 | 26 | 1017.6 |
| 20260902004703 | 90 | 237 | 2.0 | 6.0 | 0.00 | 0.00 | 0.00 | 26 | 1017.5 |
| 20260902003657 | 90 | 216 | 3.0 | 9.0 | 0.00 | 0.00 | 0.00 | 26 | 1017.5 |
| 20260902002708 | 90 | 264 | 6.0 | 11.0 | 0.00 | 0.00 | 0.00 | 26 | 1017.6 |
| 20260902001704 | 90 | 214 | 3.0 | 11.0 | 0.00 | 0.00 | 0.00 | 27 | 1017.6 |
| 20260902000657 | 91 | 242 | 6.0 | 12.0 | 0.00 | 0.00 | 0.00 | 26 | 1017.7 |
| 20260901234659 | 92 | 288 | 4.0 | 12.0 | 0.00 | 0.00 | 0.00 | 26 | 1017.7 |
| 20260901233656 | 92 | 246 | 6.0 | 9.0 | 0.00 | 0.00 | 0.00 | 26 | 1017.7 |
| 20260901232706 | 92 | 242 | 4.0 | 9.0 | 0.00 | 0.00 | 0.00 | 26 | 1017.6 |
| 20260901231659 | 92 | 238 | 7.0 | 11.0 | 0.00 | 0.00 | 0.00 | 27 | 1017.6 |
| 20260901230708 | 91 | 248 | 7.0 | 13.0 | 0.00 | 0.00 | 0.00 | 27 | 1017.5 |
| 20260901225701 | 91 | 243 | 7.0 | 11.0 | 0.00 | 0.00 | 0.00 | 27 | 1017.6 |
| 20260901224652 | 91 | 306 | 4.0 | 10.0 | 0.00 | 0.00 | 0.00 | 26 | 1017.5 |
| 20260901223708 | 91 | 220 | 3.0 | 12.0 | 0.00 | 0.00 | 0.00 | 26 | 1017.6 |
| 20260901222702 | 91 | 248 | 6.0 | 8.0 | 0.00 | 0.00 | 0.00 | 26 | 1017.7 |
| 20260901221704 | 92 | 240 | 4.0 | 11.0 | 0.00 | 0.00 | 0.00 | 26 | 1017.8 |
| 20260901220703 | 91 | 238 | 6.0 | 13.0 | 0.00 | 0.00 | 0.00 | 26 | 1017.7 |
| 20260901215658 | 91 | 262 | 7.0 | 9.0 | 0.00 | 0.00 | 0.00 | 26 | 1017.8 |
| 20260901214650 | 91 | 254 | 6.0 | 12.0 | 0.00 | 0.00 | 0.00 | 27 | 1017.8 |
| 20260901213707 | 91 | 254 | 5.0 | 11.0 | 0.00 | 0.00 | 0.00 | 27 | 1018.0 |
| 20260901212707 | 91 | 262 | 6.0 | 11.0 | 0.00 | 0.00 | 0.00 | 27 | 1018.0 |
| 20260901211656 | 92 | 248 | 7.0 | 10.0 | 0.00 | 0.00 | 0.00 | 27 | 1018.0 |
| 20260901210650 | 92 | 248 | 9.0 | 11.0 | 0.00 | 0.00 | 0.00 | 26 | 1018.0 |
| 20260901205707 | 92 | 212 | 4.0 | 10.0 | 0.00 | 0.00 | 0.00 | 26 | 1018.3 |
| 20260901204701 | 92 | 190 | 6.0 | 10.0 | 0.00 | 0.00 | 0.00 | 25 | 1019.3 |
| 20260901203649 | 93 | 173 | 2.0 | 9.0 | 0.00 | 0.00 | 0.00 | 25 | 1019.5 |
| 20260901202708 | 93 | 140 | 7.0 | 13.0 | 0.00 | 0.00 | 0.00 | 25 | 1019.5 |
| 20260901200656 | 93 | 249 | 7.0 | 13.0 | 0.00 | 0.00 | 0.00 | 26 | 1019.9 |
| 20260901194706 | 92 | 246 | 9.0 | 12.0 | 0.00 | 0.00 | 0.00 | 26 | 1020.0 |
| 20260901193657 | 92 | 258 | 4.0 | 12.0 | 0.00 | 0.00 | 0.00 | 27 | 1020.1 |
| 20260901192652 | 91 | 236 | 7.0 | 11.0 | 0.00 | 0.00 | 0.00 | 27 | 1020.3 |
| 20260901191705 | 91 | 316 | 7.0 | 11.0 | 0.00 | 0.00 | 0.00 | 27 | 1020.3 |
| 20260901185656 | 90 | 273 | 6.0 | 12.0 | 0.00 | 0.00 | 0.00 | 28 | 1020.6 |
| 20260901184653 | 90 | 140 | 4.0 | 10.0 | 0.00 | 0.00 | 0.00 | 27 | 1020.7 |
| 20260901183706 | 90 | 198 | 2.0 | 8.0 | 0.00 | 0.00 | 0.00 | 28 | 1020.7 |
| 20260901182655 | 89 | 281 | 5.0 | 12.0 | 0.00 | 0.00 | 0.00 | 28 | 1020.8 |
| 20260901180648 | 89 | 189 | 2.0 | 4.0 | 0.00 | 0.00 | 0.00 | 29 | 1020.9 |
| 20260901175701 | 88 | 170 | 3.0 | 7.0 | 0.00 | 0.00 | 0.00 | 31 | 1021.1 |
| 20260901174656 | 88 | 259 | 3.0 | 5.0 | 0.00 | 0.00 | 0.00 | 31 | 1021.2 |
| 20260901173652 | 87 | 22 | 1.0 | 6.0 | 0.00 | 0.00 | 0.00 | 32 | 1021.3 |
| 20260901172644 | 86 | 240 | 2.0 | 7.0 | 0.00 | 0.00 | 0.00 | 33 | 1021.3 |
| 20260901171654 | 86 | 271 | 2.0 | 5.0 | 0.00 | 0.00 | 0.00 | 33 | 1021.4 |
| 20260901170651 | 86 | 231 | 1.0 | 7.0 | 0.00 | 0.00 | 0.00 | 33 | 1021.4 |
| 20260901165648 | 85 | 98 | 2.0 | 6.0 | 0.00 | 0.00 | 0.00 | 35 | 1021.4 |
| 20260901164656 | 85 | 111 | 3.0 | 6.0 | 0.00 | 0.00 | 0.00 | 35 | 1021.3 |
| 20260901163654 | 84 | 77 | 2.0 | 5.0 | 0.00 | 0.00 | 0.00 | 38 | 1021.3 |
| 20260901162643 | 83 | 106 | 0.0 | 4.0 | 0.00 | 0.00 | 0.00 | 40 | 1021.3 |
| 20260901155653 | 81 | 102 | 1.0 | 3.0 | 0.00 | 0.00 | 0.00 | 41 | 1021.1 |
| 20260901154648 | 81 | 94 | 2.0 | 2.0 | 0.00 | 0.00 | 0.00 | 42 | 1021.0 |
| 20260901153701 | 79 | 355 | 1.0 | 3.0 | 0.00 | 0.00 | 0.00 | 45 | 1021.1 |
| 20260901151652 | 77 | 306 | 1.0 | 3.0 | 0.00 | 0.00 | 0.00 | 47 | 1021.1 |
| 20260901150642 | 76 | 334 | 0.0 | 2.0 | 0.00 | 0.00 | 0.00 | 50 | 1021.0 |
| 20260901145658 | 75 | 331 | 0.0 | 1.0 | 0.00 | 0.00 | 0.00 | 53 | 1021.1 |
| 20260901144651 | 74 | 76 | 0.0 | 2.0 | 0.00 | 0.00 | 0.00 | 55 | 1020.9 |
| 20260901143644 | 74 | 75 | 1.0 | 1.0 | 0.00 | 0.00 | 0.00 | 55 | 1021.0 |
| 20260901142640 | 73 | 75 | 0.0 | 3.0 | 0.00 | 0.00 | 0.00 | 56 | 1020.9 |
| 20260901141649 | 73 | 121 | 1.0 | 3.0 | 0.00 | 0.00 | 0.00 | 56 | 1020.8 |
| 20260901140659 | 73 | 105 | 3.0 | 4.0 | 0.00 | 0.00 | 0.00 | 56 | 1020.8 |
| 20260901135650 | 72 | 81 | 2.0 | 3.0 | 0.00 | 0.00 | 0.00 | 56 | 1020.6 |
| 20260901134644 | 72 | 86 | 2.0 | 5.0 | 0.00 | 0.00 | 0.00 | 56 | 1020.6 |